Find Raduga-1M

NORAD ID: 32373 Int'l Des: 2007-058 Owner: KVR Country: RU operational
HEOCIRCULAR

Current View

Loading 3D Globe...

About Raduga-1M

Description loading...

Upcoming Passes

Passes for default location (London). Set your location on the main map for personalized predictions.

Altitude History

Loading altitude history...

Two-Line Element Set

1 32373U 07058A 26146.08725472 -.00000245 00000-0 00000-0 0 9994
2 32373 10.1279 51.9810 0001830 346.3643 216.1463 0.99400579 52176
Epoch: May 26, 2026 • Age: 11 hours

Current Status

Altitude 36024.6 km
Velocity 3.07 km/s
Sub-Earth Point 0.71°N, 22.05°W
Launch Date Dec 9, 2007
Age 18.4 years
Type other

Technical Details

Classification Payload
Mass 2600.00 kg
Dry Mass 2500.00 kg
Total Mass 2600.00 kg
Length 5.00 m
Diameter 2.00 m
Span 20.00 m
Shape Step Cyl + 2 Pan
Manufacturer RESH/POLK
Bus Type Globus
Phase Status In Orbit
Owner/State KVR/RU

Most Searched